YUNHAI 2-2C

导读

YUNHAI 2-2C(云海二号2C星)是中国于2024年3月21日发射的人造卫星,隶属于云海系列卫星体系。云海系列卫星主要用于开展空间环境探测等相关科学试验,该卫星入轨后将持续获取空间环境相关监测数据,服务于空间环境科学研究,进一步提升中国在空间环境探测领域的研究能力,完善空间观测网络布局。

Basic Information
目录编号:
59282
目录名称:
YUNHAI 2-2C
国际标识:
2024-052C
轨道中心:
EARTH
卫星名称:
YUNHAI 2-2C
卫星全名:
YUNHAI 2-2C
卫星状态:
在轨 (已飞行845 天)
发射日期:
2024-03-21 UTC
国别 :
中国 (CN)
星等 :
--
Orbit Information
数据来源 国际轨道数据 AOE轨道数据
星历时间 2026-07-14T04:36:42+0800
9小时前
查看轨道信息
2026-07-14T02:00:00+0800
12小时前
查看轨道信息
半长轴 7176.655km 7176.674km
偏心率 0.0006276 0.0006734
轨道倾角 50.010° 50.009°
近地点辐角 255.783° 254.101°
升交点赤经 29.403° 29.866°
平近点角 104.239° 266.139°
近地点 794.013km 793.704km
远地点 803.023km 803.37km
周期 100.842分钟 100.843分钟
每日圈数 14.27972 14.279664
Detailed Information
使用方式:
暂无
2D Orbit Map
3D Orbit Map
Orbit Altitude Analysis Chart
Orbit Inclination Analysis Chart
Orbit Comprehensive Analysis Chart
View Comprehensive Chart